^^
Saratoga-Weather Station Historical Data
Daily Summary for August 19, 2022 Units:  Metric    English   Both
Daily Weekly Monthly Yearly Custom
  High: Low: Average:
Temperature: 26.3 °C 18.2 °C 22.4 °C
Dew Point: 17.6 °C 12.5 °C 16.1 °C
Humidity: 83% 45% 68%
Wind Speed: 25.9km/h 0km/h 6.1km/h
Wind Gust: 29km/h - -
Wind- - West
Pressure: 1014.9 hPa 1011.9 hPa -
Precipitation: 0.0 mm    
Historical Graphs
 
 
Tabular Data for August 19, 2022
Time Temperature Dew Point Pressure Wind Wind Speed Wind Gust Humidity Rainfall Rate (Hourly) solar
00:04 21.7 °C 15.3 °C 1011.9 hPa Calm     67% 0.0 mm 0 W/m2
00:09 21.6 °C 15.2 °C 1011.9 hPa Calm     67% 0.0 mm 0 W/m2
00:14 21.4 °C 15.2 °C 1011.9 hPa Calm     68% 0.0 mm 0 W/m2
00:19 21.4 °C 15.2 °C 1011.9 hPa Calm     68% 0.0 mm 0 W/m2
00:24 21.3 °C 15.4 °C 1011.9 hPa Calm     69% 0.0 mm 0 W/m2
00:29 21.3 °C 15.2 °C 1011.9 hPa South 1.4 km/h 1.6 km/h 68% 0.0 mm 0 W/m2
00:34 21.2 °C 15.3 °C 1011.9 hPa South 1.4 km/h 1.6 km/h 69% 0.0 mm 0 W/m2
00:39 21.1 °C 15.2 °C 1011.9 hPa WNW 3.2 km/h 4.8 km/h 69% 0.0 mm 0 W/m2
00:44 21.1 °C 15 °C 1011.9 hPa WSW 4.7 km/h 4.8 km/h 68% 0.0 mm 0 W/m2
00:49 21.1 °C 15 °C 1011.9 hPa WNW 1.4 km/h 3.2 km/h 68% 0.0 mm 0 W/m2
00:54 21.2 °C 15.1 °C 1011.9 hPa WNW 1.4 km/h 3.2 km/h 68% 0.0 mm 0 W/m2
00:59 21.2 °C 15.1 °C 1011.9 hPa West 1.4 km/h 3.2 km/h 68% 0.0 mm 0 W/m2
01:04 21.1 °C 15 °C 1011.9 hPa NNE 1.4 km/h 6.4 km/h 68% 0.0 mm 0 W/m2
01:09 21.1 °C 15 °C 1011.9 hPa Calm   3.2 km/h 68% 0.0 mm 0 W/m2
01:14 21.1 °C 15 °C 1011.9 hPa West 1.4 km/h 6.4 km/h 68% 0.0 mm 0 W/m2
01:19 20.9 °C 15 °C 1011.9 hPa West 3.2 km/h 3.2 km/h 69% 0.0 mm 0 W/m2
01:24 20.8 °C 14.9 °C 1011.9 hPa WSW 3.2 km/h 4.8 km/h 69% 0.0 mm 0 W/m2
01:29 20.7 °C 15 °C 1011.9 hPa WSW 4.7 km/h 4.8 km/h 70% 0.0 mm 0 W/m2
01:34 20.7 °C 15 °C 1011.9 hPa West 4.7 km/h 6.4 km/h 70% 0.0 mm 0 W/m2
01:39 20.6 °C 14.9 °C 1011.9 hPa West 3.2 km/h 6.4 km/h 70% 0.0 mm 0 W/m2
01:44 20.5 °C 14.8 °C 1012.2 hPa West 3.2 km/h 4.8 km/h 70% 0.0 mm 0 W/m2
01:49 20.4 °C 14.7 °C 1012.2 hPa WSW 4.7 km/h 6.4 km/h 70% 0.0 mm 0 W/m2
01:54 20.4 °C 15 °C 1012.2 hPa West 3.2 km/h 6.4 km/h 71% 0.0 mm 0 W/m2
01:59 20.4 °C 15 °C 1012.2 hPa WNW 3.2 km/h 6.4 km/h 71% 0.0 mm 0 W/m2
02:04 20.4 °C 15 °C 1012.2 hPa West 1.4 km/h 4.8 km/h 71% 0.0 mm 0 W/m2
02:09 20.4 °C 15 °C 1012.2 hPa West 3.2 km/h 4.8 km/h 71% 0.0 mm 0 W/m2
02:14 20.3 °C 14.9 °C 1012.2 hPa WSW 4.7 km/h 11.3 km/h 71% 0.0 mm 0 W/m2
02:19 20.3 °C 14.9 °C 1012.2 hPa WSW 4.7 km/h 6.4 km/h 71% 0.0 mm 0 W/m2
02:24 20.3 °C 14.9 °C 1012.2 hPa West 4.7 km/h 4.8 km/h 71% 0.0 mm 0 W/m2
02:29 20.2 °C 14.8 °C 1012.2 hPa WSW 4.7 km/h 6.4 km/h 71% 0.0 mm 0 W/m2
02:34 20.2 °C 15 °C 1012.2 hPa West 1.4 km/h 4.8 km/h 72% 0.0 mm 0 W/m2
02:39 20.3 °C 15.1 °C 1011.9 hPa West 1.4 km/h 3.2 km/h 72% 0.0 mm 0 W/m2
02:44 20.3 °C 15.1 °C 1011.9 hPa West 3.2 km/h 6.4 km/h 72% 0.0 mm 0 W/m2
02:49 20.2 °C 15 °C 1011.9 hPa West 3.2 km/h 3.2 km/h 72% 0.0 mm 0 W/m2
02:54 20.2 °C 15 °C 1011.9 hPa West 1.4 km/h 4.8 km/h 72% 0.0 mm 0 W/m2
02:59 20.2 °C 15 °C 1011.9 hPa Calm   3.2 km/h 72% 0.0 mm 0 W/m2
03:04 20.2 °C 15 °C 1011.9 hPa Calm   1.6 km/h 72% 0.0 mm 0 W/m2
03:09 20.2 °C 15 °C 1011.9 hPa Calm   1.6 km/h 72% 0.0 mm 0 W/m2
03:14 20.2 °C 15 °C 1011.9 hPa West 1.4 km/h 3.2 km/h 72% 0.0 mm 0 W/m2
03:19 20.1 °C 14.9 °C 1011.9 hPa West 1.4 km/h 3.2 km/h 72% 0.0 mm 0 W/m2
03:24 20.1 °C 14.9 °C 1011.9 hPa West 1.4 km/h 1.6 km/h 72% 0.0 mm 0 W/m2
03:29 20 °C 14.8 °C 1011.9 hPa Calm   3.2 km/h 72% 0.0 mm 0 W/m2
03:34 20 °C 15 °C 1011.9 hPa Calm     73% 0.0 mm 0 W/m2
03:39 19.9 °C 14.9 °C 1011.9 hPa West 1.4 km/h 3.2 km/h 73% 0.0 mm 0 W/m2
03:44 19.9 °C 14.9 °C 1011.9 hPa West 3.2 km/h 6.4 km/h 73% 0.0 mm 0 W/m2
03:49 19.9 °C 14.9 °C 1011.9 hPa West 3.2 km/h 4.8 km/h 73% 0.0 mm 0 W/m2
03:54 19.9 °C 14.9 °C 1011.9 hPa West 3.2 km/h 6.4 km/h 73% 0.0 mm 0 W/m2
03:59 19.9 °C 14.9 °C 1011.9 hPa West 3.2 km/h 4.8 km/h 73% 0.0 mm 0 W/m2
04:04 19.9 °C 14.9 °C 1011.9 hPa West 1.4 km/h 6.4 km/h 73% 0.0 mm 0 W/m2
04:09 19.9 °C 14.9 °C 1011.9 hPa WSW 3.2 km/h 4.8 km/h 73% 0.0 mm 0 W/m2
04:14 19.9 °C 14.9 °C 1011.9 hPa West 1.4 km/h 3.2 km/h 73% 0.0 mm 0 W/m2
04:19 19.8 °C 15 °C 1011.9 hPa West 3.2 km/h 4.8 km/h 74% 0.0 mm 0 W/m2
04:24 19.8 °C 15 °C 1011.9 hPa West 1.4 km/h 3.2 km/h 74% 0.0 mm 0 W/m2
04:29 19.7 °C 14.9 °C 1011.9 hPa West 1.4 km/h 3.2 km/h 74% 0.0 mm 0 W/m2
04:34 19.7 °C 14.9 °C 1011.9 hPa Calm     74% 0.0 mm 0 W/m2
04:39 19.6 °C 15 °C 1011.9 hPa Calm   3.2 km/h 75% 0.0 mm 0 W/m2
04:44 19.5 °C 14.9 °C 1012.2 hPa West 1.4 km/h 1.6 km/h 75% 0.0 mm 0 W/m2
04:49 19.4 °C 14.9 °C 1012.2 hPa West 1.4 km/h 1.6 km/h 75% 0.0 mm 0 W/m2
04:54 19.3 °C 15 °C 1012.2 hPa Calm   1.6 km/h 76% 0.0 mm 0 W/m2
04:59 19.2 °C 15.1 °C 1012.2 hPa Calm   1.6 km/h 77% 0.0 mm 0 W/m2
05:04 19.1 °C 15 °C 1012.2 hPa Calm     77% 0.0 mm 0 W/m2
05:09 19 °C 14.9 °C 1012.2 hPa Calm     77% 0.0 mm 0 W/m2
05:14 18.9 °C 15 °C 1012.2 hPa Calm     78% 0.0 mm 0 W/m2
05:19 18.8 °C 14.9 °C 1012.2 hPa Calm     78% 0.0 mm 0 W/m2
05:24 18.8 °C 14.9 °C 1012.2 hPa Calm     78% 0.0 mm 0 W/m2
05:29 18.7 °C 15 °C 1012.2 hPa Calm     79% 0.0 mm 0 W/m2
05:34 18.6 °C 14.9 °C 1012.2 hPa Calm     79% 0.0 mm 0 W/m2
05:39 18.6 °C 15.1 °C 1012.2 hPa Calm     80% 0.0 mm 0 W/m2
05:44 18.5 °C 15 °C 1012.2 hPa West 1.4 km/h 1.6 km/h 80% 0.0 mm 0 W/m2
05:49 18.4 °C 14.9 °C 1012.2 hPa Calm   1.6 km/h 80% 0.0 mm 0 W/m2
05:54 18.5 °C 15 °C 1012.2 hPa Calm   1.6 km/h 80% 0.0 mm 0 W/m2
05:59 18.6 °C 15.1 °C 1012.2 hPa Calm     80% 0.0 mm 0 W/m2
06:04 18.6 °C 15.1 °C 1012.2 hPa Calm     80% 0.0 mm 0 W/m2
06:09 18.7 °C 15.2 °C 1012.2 hPa Calm   1.6 km/h 80% 0.0 mm 0 W/m2
06:14 18.7 °C 15.2 °C 1012.2 hPa Calm     80% 0.0 mm 0 W/m2
06:19 18.7 °C 15.2 °C 1012.2 hPa Calm   1.6 km/h 80% 0.0 mm 0 W/m2
06:29 18.7 °C 15.2 °C 1012.2 hPa Calm   1.6 km/h 80% 0.0 mm 0 W/m2
06:34 18.7 °C 15.2 °C 1012.5 hPa Calm     80% 0.0 mm 0 W/m2
06:40 18.6 °C 15.1 °C 1012.5 hPa Calm     80% 0.0 mm 0 W/m2
06:45 18.5 °C 15 °C 1012.5 hPa Calm     80% 0.0 mm 5 W/m2
06:50 18.4 °C 15.1 °C 1012.5 hPa West 1.4 km/h 3.2 km/h 81% 0.0 mm 9 W/m2
07:00 18.3 °C 15 °C 1012.5 hPa Calm     81% 0.0 mm 19 W/m2
07:05 18.2 °C 15.1 °C 1012.5 hPa Calm     82% 0.0 mm 25 W/m2
07:10 18.2 °C 15.1 °C 1012.5 hPa Calm     82% 0.0 mm 30 W/m2
07:15 18.2 °C 15.1 °C 1012.5 hPa Calm     82% 0.0 mm 37 W/m2
07:20 18.2 °C 15.3 °C 1012.5 hPa Calm     83% 0.0 mm 47 W/m2
07:25 18.2 °C 15.3 °C 1012.9 hPa Calm     83% 0.0 mm 58 W/m2
07:30 18.3 °C 15.4 °C 1012.5 hPa West 1.4 km/h 3.2 km/h 83% 0.0 mm 63 W/m2
07:35 18.4 °C 15.3 °C 1012.9 hPa Calm     82% 0.0 mm 63 W/m2
07:40 18.5 °C 15.4 °C 1012.9 hPa Calm   3.2 km/h 82% 0.0 mm 62 W/m2
07:45 18.7 °C 15.6 °C 1012.9 hPa West 1.4 km/h 3.2 km/h 82% 0.0 mm 65 W/m2
07:50 18.8 °C 15.5 °C 1012.9 hPa Calm   1.6 km/h 81% 0.0 mm 65 W/m2
07:55 18.9 °C 15.6 °C 1012.9 hPa West 1.4 km/h 1.6 km/h 81% 0.0 mm 70 W/m2
08:00 19.1 °C 15.8 °C 1012.9 hPa Calm     81% 0.0 mm 86 W/m2
08:05 19.2 °C 15.7 °C 1012.9 hPa Calm   1.6 km/h 80% 0.0 mm 105 W/m2
08:10 19.4 °C 15.7 °C 1012.9 hPa WNW 3.2 km/h 3.2 km/h 79% 0.0 mm 125 W/m2
08:15 19.7 °C 15.8 °C 1012.9 hPa WNW 3.2 km/h 6.4 km/h 78% 0.0 mm 135 W/m2
08:20 19.9 °C 15.9 °C 1012.9 hPa West 1.4 km/h 4.8 km/h 78% 0.0 mm 146 W/m2
08:25 20.3 °C 16.1 °C 1012.9 hPa WSW 11.3 km/h 11.3 km/h 77% 0.0 mm 156 W/m2
08:30 20.4 °C 16 °C 1013.2 hPa NW 6.4 km/h 6.4 km/h 76% 0.0 mm 165 W/m2
08:35 20.8 °C 16.2 °C 1013.2 hPa WNW 4.7 km/h 4.8 km/h 75% 0.0 mm 174 W/m2
08:40 21.1 °C 16.3 °C 1013.2 hPa West 4.7 km/h 8 km/h 74% 0.0 mm 178 W/m2
08:45 21.2 °C 16.4 °C 1013.2 hPa WNW 3.2 km/h 4.8 km/h 74% 0.0 mm 176 W/m2
08:50 21.4 °C 16.1 °C 1013.2 hPa NW 6.4 km/h 9.7 km/h 72% 0.0 mm 174 W/m2
08:55 21.7 °C 16.4 °C 1013.2 hPa WSW 4.7 km/h 9.7 km/h 72% 0.0 mm 174 W/m2
09:00 21.8 °C 16.5 °C 1013.2 hPa WNW 4.7 km/h 4.8 km/h 72% 0.0 mm 172 W/m2
09:05 22 °C 16.5 °C 1013.5 hPa WNW 4.7 km/h 8 km/h 71% 0.0 mm 171 W/m2
09:10 22.2 °C 16.5 °C 1013.5 hPa WNW 1.4 km/h 4.8 km/h 70% 0.0 mm 163 W/m2
09:15 22.3 °C 16.6 °C 1013.5 hPa WNW 3.2 km/h 4.8 km/h 70% 0.0 mm 153 W/m2
09:20 22.4 °C 16.7 °C 1013.5 hPa WNW 6.4 km/h 6.4 km/h 70% 0.0 mm 158 W/m2
09:25 22.6 °C 16.6 °C 1013.5 hPa WNW 1.4 km/h 6.4 km/h 69% 0.0 mm 162 W/m2
09:30 22.7 °C 16.7 °C 1013.5 hPa WNW 1.4 km/h 6.4 km/h 69% 0.0 mm 229 W/m2
09:35 22.8 °C 16.8 °C 1013.5 hPa West 1.4 km/h 9.7 km/h 69% 0.0 mm 144 W/m2
09:41 22.9 °C 16.7 °C 1013.5 hPa WNW 1.4 km/h 4.8 km/h 68% 0.0 mm 163 W/m2
09:46 23.1 °C 16.6 °C 1013.5 hPa West 3.2 km/h 8 km/h 67% 0.0 mm 146 W/m2
09:51 23.1 °C 16.6 °C 1013.5 hPa SW 4.7 km/h 6.4 km/h 67% 0.0 mm 139 W/m2
09:56 23.1 °C 16.6 °C 1013.5 hPa NW 4.7 km/h 6.4 km/h 67% 0.0 mm 134 W/m2
10:01 23.1 °C 16.4 °C 1013.5 hPa WSW 6.4 km/h 8 km/h 66% 0.0 mm 142 W/m2
10:06 23.2 °C 16.5 °C 1013.5 hPa West 3.2 km/h 6.4 km/h 66% 0.0 mm 311 W/m2
10:11 23.4 °C 16.7 °C 1013.5 hPa NNW 3.2 km/h 12.9 km/h 66% 0.0 mm 374 W/m2
10:16 23.6 °C 16.6 °C 1013.5 hPa West 1.4 km/h 8 km/h 65% 0.0 mm 355 W/m2
10:21 23.7 °C 16.7 °C 1013.5 hPa NW 4.7 km/h 9.7 km/h 65% 0.0 mm 396 W/m2
10:26 23.8 °C 16.8 °C 1013.5 hPa Calm   6.4 km/h 65% 0.0 mm 415 W/m2
10:31 24.1 °C 16.9 °C 1013.5 hPa West 4.7 km/h 9.7 km/h 64% 0.0 mm 452 W/m2
10:36 24.2 °C 16.7 °C 1013.5 hPa NW 6.4 km/h 11.3 km/h 63% 0.0 mm 475 W/m2
10:41 24.1 °C 16.6 °C 1013.5 hPa WNW 6.4 km/h 12.9 km/h 63% 0.0 mm 464 W/m2
10:46 24.1 °C 16.6 °C 1013.5 hPa NW 1.4 km/h 8 km/h 63% 0.0 mm 383 W/m2
10:51 24.1 °C 16.9 °C 1013.5 hPa West 9.7 km/h 9.7 km/h 64% 0.0 mm 517 W/m2
10:56 24.3 °C 16.8 °C 1013.5 hPa WNW 6.4 km/h 8 km/h 63% 0.0 mm 538 W/m2
11:01 24.5 °C 16.7 °C 1013.5 hPa SW 4.7 km/h 12.9 km/h 62% 0.0 mm 548 W/m2
11:06 24.6 °C 16.8 °C 1013.5 hPa West 6.4 km/h 9.7 km/h 62% 0.0 mm 594 W/m2
11:11 24.6 °C 17.1 °C 1013.5 hPa WNW 3.2 km/h 6.4 km/h 63% 0.0 mm 598 W/m2
11:16 24.5 °C 17 °C 1013.5 hPa West 13 km/h 16.1 km/h 63% 0.0 mm 610 W/m2
11:21 24.5 °C 17 °C 1013.5 hPa NW 4.7 km/h 14.5 km/h 63% 0.0 mm 610 W/m2
11:26 24.6 °C 17.3 °C 1013.5 hPa WNW 16.3 km/h 16.1 km/h 64% 0.0 mm 652 W/m2
11:31 24.7 °C 16.7 °C 1013.5 hPa SSW 6.4 km/h 20.9 km/h 61% 0.0 mm 666 W/m2
11:36 24.7 °C 16.9 °C 1013.5 hPa NW 3.2 km/h 14.5 km/h 62% 0.0 mm 673 W/m2
11:41 24.9 °C 17.1 °C 1013.5 hPa WSW 11.1 km/h 19.3 km/h 62% 0.0 mm 675 W/m2
11:46 24.8 °C 16.8 °C 1013.5 hPa NW 9.7 km/h 19.3 km/h 61% 0.0 mm 694 W/m2
11:51 24.7 °C 16.9 °C 1013.5 hPa WSW 7.9 km/h 24.1 km/h 62% 0.0 mm 693 W/m2
11:56 24.7 °C 16.9 °C 1013.5 hPa West 13 km/h 16.1 km/h 62% 0.0 mm 647 W/m2
12:01 24.6 °C 17.1 °C 1013.5 hPa West 11.1 km/h 17.7 km/h 63% 0.0 mm 663 W/m2
12:06 24.7 °C 16.9 °C 1013.5 hPa NW 11.1 km/h 20.9 km/h 62% 0.0 mm 686 W/m2
12:11 24.6 °C 17.1 °C 1013.5 hPa WNW 11.1 km/h 16.1 km/h 63% 0.0 mm 645 W/m2
12:16 24.7 °C 16.9 °C 1013.5 hPa NW 16.3 km/h 24.1 km/h 62% 0.0 mm 570 W/m2
12:21 24.4 °C 17.1 °C 1013.5 hPa WNW 9.7 km/h 16.1 km/h 64% 0.0 mm 686 W/m2
12:26 24.6 °C 17.1 °C 1013.5 hPa WSW 16.3 km/h 24.1 km/h 63% 0.0 mm 643 W/m2
12:31 24.6 °C 17.1 °C 1013.5 hPa WNW 6.4 km/h 19.3 km/h 63% 0.0 mm 682 W/m2
12:36 24.8 °C 17.3 °C 1013.5 hPa West 9.7 km/h 16.1 km/h 63% 0.0 mm 675 W/m2
12:41 24.6 °C 17.1 °C 1013.5 hPa West 4.7 km/h 17.7 km/h 63% 0.0 mm 701 W/m2
12:46 24.7 °C 17.2 °C 1013.5 hPa West 11.1 km/h 19.3 km/h 63% 0.0 mm 742 W/m2
12:51 24.8 °C 17.3 °C 1013.5 hPa WSW 6.4 km/h 16.1 km/h 63% 0.0 mm 777 W/m2
12:56 24.9 °C 16.6 °C 1013.5 hPa NW 1.4 km/h 14.5 km/h 60% 0.0 mm 777 W/m2
13:01 24.9 °C 16.9 °C 1013.5 hPa NNW 13 km/h 22.5 km/h 61% 0.0 mm 768 W/m2
13:06 24.8 °C 17 °C 1013.5 hPa WNW 7.9 km/h 12.9 km/h 62% 0.0 mm 766 W/m2
13:11 24.8 °C 16.5 °C 1013.5 hPa WSW 20.9 km/h 27.4 km/h 60% 0.0 mm 759 W/m2
13:16 24.6 °C 16.8 °C 1013.5 hPa West 9.7 km/h 16.1 km/h 62% 0.0 mm 747 W/m2
13:21 24.8 °C 16.5 °C 1013.5 hPa West 9.7 km/h 27.4 km/h 60% 0.0 mm 733 W/m2
13:26 24.9 °C 16.6 °C 1013.5 hPa WNW 17.7 km/h 22.5 km/h 60% 0.0 mm 788 W/m2
13:31 24.9 °C 15.8 °C 1013.5 hPa SW 11.1 km/h 19.3 km/h 57% 0.0 mm 791 W/m2
13:36 24.9 °C 15.2 °C 1013.5 hPa WNW 14.3 km/h 22.5 km/h 55% 0.0 mm 828 W/m2
13:41 25.2 °C 15.2 °C 1013.5 hPa NNW 20.9 km/h 20.9 km/h 54% 0.0 mm 828 W/m2
13:46 25.3 °C 15.3 °C 1013.5 hPa WNW 7.9 km/h 16.1 km/h 54% 0.0 mm 833 W/m2
13:51 25.4 °C 15.7 °C 1013.5 hPa WSW 6.4 km/h 14.5 km/h 55% 0.0 mm 824 W/m2
13:56 25.5 °C 15.2 °C 1013.5 hPa WSW 25.9 km/h 25.7 km/h 53% 0.0 mm 795 W/m2
14:01 25.2 °C 14.9 °C 1013.5 hPa WNW 4.7 km/h 17.7 km/h 53% 0.0 mm 803 W/m2
14:06 25.5 °C 15.2 °C 1013.5 hPa West 13 km/h 16.1 km/h 53% 0.0 mm 819 W/m2
14:11 25.4 °C 15.1 °C 1013.5 hPa West 6.4 km/h 17.7 km/h 53% 0.0 mm 816 W/m2
14:16 25.5 °C 14.6 °C 1013.5 hPa WSW 16.3 km/h 17.7 km/h 51% 0.0 mm 810 W/m2
14:21 25.3 °C 12.5 °C 1013.5 hPa NW 9.7 km/h 22.5 km/h 45% 0.0 mm 821 W/m2
14:26 25.4 °C 13.9 °C 1013.5 hPa WNW 7.9 km/h 14.5 km/h 49% 0.0 mm 807 W/m2
14:31 25.7 °C 14.8 °C 1013.5 hPa WSW 6.4 km/h 14.5 km/h 51% 0.0 mm 802 W/m2
14:36 25.9 °C 15 °C 1013.2 hPa West 13 km/h 17.7 km/h 51% 0.0 mm 803 W/m2
14:41 26.3 °C 15.4 °C 1013.5 hPa WNW 14.3 km/h 24.1 km/h 51% 0.0 mm 798 W/m2
14:46 26.1 °C 15.5 °C 1013.2 hPa NW 7.9 km/h 14.5 km/h 52% 0.0 mm 800 W/m2
14:51 25.8 °C 15.5 °C 1013.2 hPa WNW 13 km/h 24.1 km/h 53% 0.0 mm 805 W/m2
14:56 25.8 °C 15.8 °C 1013.2 hPa North 9.7 km/h 14.5 km/h 54% 0.0 mm 795 W/m2
15:01 25.9 °C 15.6 °C 1013.2 hPa WSW 7.9 km/h 22.5 km/h 53% 0.0 mm 810 W/m2
15:06 25.7 °C 15.7 °C 1013.2 hPa West 3.2 km/h 24.1 km/h 54% 0.0 mm 793 W/m2
15:11 25.8 °C 15.8 °C 1013.2 hPa WNW 11.1 km/h 19.3 km/h 54% 0.0 mm 824 W/m2
15:16 26 °C 16 °C 1013.2 hPa WNW 7.9 km/h 19.3 km/h 54% 0.0 mm 809 W/m2
15:21 26.3 °C 16 °C 1013.2 hPa West 13 km/h 14.5 km/h 53% 0.0 mm 823 W/m2
15:26 26.3 °C 16 °C 1013.2 hPa NNW 16.3 km/h 20.9 km/h 53% 0.0 mm 531 W/m2
15:31 25.8 °C 15.8 °C 1013.5 hPa WNW 14.3 km/h 17.7 km/h 54% 0.0 mm 97 W/m2
15:36 25.6 °C 16.2 °C 1013.5 hPa NW 9.7 km/h 20.9 km/h 56% 0.0 mm 763 W/m2
15:41 25.3 °C 15.9 °C 1013.5 hPa WNW 14.3 km/h 14.5 km/h 56% 0.0 mm 109 W/m2
15:46 25.1 °C 16.3 °C 1013.2 hPa West 14.3 km/h 19.3 km/h 58% 0.0 mm 109 W/m2
15:51 25.3 °C 16.4 °C 1013.2 hPa West 14.3 km/h 14.5 km/h 58% 0.0 mm 772 W/m2
15:56 25.8 °C 16.6 °C 1013.2 hPa NW 11.1 km/h 22.5 km/h 57% 0.0 mm 775 W/m2
16:01 25.9 °C 16.4 °C 1013.2 hPa West 13 km/h 19.3 km/h 56% 0.0 mm 373 W/m2
16:06 25.4 °C 16.5 °C 1013.5 hPa NW 19.5 km/h 20.9 km/h 58% 0.0 mm 125 W/m2
16:11 24.9 °C 16.3 °C 1013.2 hPa West 9.7 km/h 22.5 km/h 59% 0.0 mm 149 W/m2
16:16 24.8 °C 16.5 °C 1013.5 hPa NW 14.3 km/h 17.7 km/h 60% 0.0 mm 132 W/m2
16:21 24.7 °C 16.1 °C 1013.2 hPa WSW 13 km/h 22.5 km/h 59% 0.0 mm 93 W/m2
16:26 24.6 °C 16.1 °C 1013.2 hPa NW 7.9 km/h 19.3 km/h 59% 0.0 mm 100 W/m2
16:31 24.8 °C 16.2 °C 1013.2 hPa WSW 4.7 km/h 17.7 km/h 59% 0.0 mm 100 W/m2
16:36 25.2 °C 16.6 °C 1013.2 hPa WNW 6.4 km/h 16.1 km/h 59% 0.0 mm 689 W/m2
16:41 25.6 °C 17 °C 1013.2 hPa West 13 km/h 14.5 km/h 59% 0.0 mm 668 W/m2
16:46 25.7 °C 17.1 °C 1013.2 hPa WNW 7.9 km/h 25.7 km/h 59% 0.0 mm 624 W/m2
16:51 25.8 °C 17.2 °C 1013.2 hPa WNW 9.7 km/h 20.9 km/h 59% 0.0 mm 603 W/m2
16:56 25.6 °C 17 °C 1013.5 hPa West 4.7 km/h 22.5 km/h 59% 0.0 mm 594 W/m2
17:01 25.5 °C 17.2 °C 1013.5 hPa West 11.1 km/h 19.3 km/h 60% 0.0 mm 575 W/m2
17:06 25.3 °C 17.2 °C 1013.2 hPa NW 9.7 km/h 17.7 km/h 61% 0.0 mm 563 W/m2
17:11 25.3 °C 17 °C 1013.5 hPa WNW 14.3 km/h 29 km/h 60% 0.0 mm 564 W/m2
17:16 25.2 °C 17.1 °C 1013.5 hPa WNW 6.4 km/h 22.5 km/h 61% 0.0 mm 534 W/m2
17:21 25.1 °C 17 °C 1013.2 hPa West 6.4 km/h 29 km/h 61% 0.0 mm 524 W/m2
17:26 25.1 °C 17 °C 1013.5 hPa WNW 16.3 km/h 25.7 km/h 61% 0.0 mm 508 W/m2
17:31 25 °C 17.2 °C 1013.2 hPa WNW 11.1 km/h 17.7 km/h 62% 0.0 mm 496 W/m2
17:36 25.1 °C 17.3 °C 1013.5 hPa West 9.7 km/h 19.3 km/h 62% 0.0 mm 480 W/m2
17:41 24.9 °C 17.1 °C 1013.5 hPa WSW 7.9 km/h 24.1 km/h 62% 0.0 mm 469 W/m2
17:46 24.8 °C 17 °C 1013.5 hPa NW 20.9 km/h 25.7 km/h 62% 0.0 mm 459 W/m2
17:51 24.7 °C 17.2 °C 1013.5 hPa WNW 4.7 km/h 25.7 km/h 63% 0.0 mm 443 W/m2
17:56 24.8 °C 17 °C 1013.5 hPa NW 14.3 km/h 20.9 km/h 62% 0.0 mm 431 W/m2
18:01 24.9 °C 17.1 °C 1013.5 hPa West 17.7 km/h 20.9 km/h 62% 0.0 mm 418 W/m2
18:06 24.9 °C 17.1 °C 1013.5 hPa NW 11.1 km/h 16.1 km/h 62% 0.0 mm 399 W/m2
18:11 24.7 °C 17.2 °C 1013.5 hPa West 17.7 km/h 24.1 km/h 63% 0.0 mm 387 W/m2
18:16 24.8 °C 17.3 °C 1013.5 hPa West 11.1 km/h 20.9 km/h 63% 0.0 mm 374 W/m2
18:21 24.6 °C 17.3 °C 1013.5 hPa WNW 16.3 km/h 19.3 km/h 64% 0.0 mm 362 W/m2
18:26 24.6 °C 17.3 °C 1013.5 hPa WSW 11.1 km/h 12.9 km/h 64% 0.0 mm 352 W/m2
18:31 24.6 °C 17.3 °C 1013.5 hPa WSW 14.3 km/h 16.1 km/h 64% 0.0 mm 339 W/m2
18:36 24.3 °C 17.3 °C 1013.9 hPa WSW 7.9 km/h 14.5 km/h 65% 0.0 mm 42 W/m2
18:41 23.9 °C 17.4 °C 1013.9 hPa West 13 km/h 17.7 km/h 67% 0.0 mm 125 W/m2
18:46 23.7 °C 17.4 °C 1013.9 hPa SW 4.7 km/h 11.3 km/h 68% 0.0 mm 49 W/m2
18:51 23.6 °C 17.3 °C 1013.9 hPa WNW 6.4 km/h 17.7 km/h 68% 0.0 mm 44 W/m2
18:56 23.5 °C 17.5 °C 1013.9 hPa WSW 7.9 km/h 11.3 km/h 69% 0.0 mm 107 W/m2
19:01 23.8 °C 17.5 °C 1013.9 hPa WNW 11.1 km/h 16.1 km/h 68% 0.0 mm 260 W/m2
19:06 24.1 °C 17.6 °C 1013.9 hPa NNW 6.4 km/h 11.3 km/h 67% 0.0 mm 239 W/m2
19:11 24.2 °C 17.4 °C 1013.9 hPa NW 6.4 km/h 17.7 km/h 66% 0.0 mm 214 W/m2
19:16 24.1 °C 17.1 °C 1013.5 hPa WNW 6.4 km/h 16.1 km/h 65% 0.0 mm 42 W/m2
19:21 23.7 °C 16.7 °C 1013.9 hPa West 9.7 km/h 17.7 km/h 65% 0.0 mm 49 W/m2
19:26 23.6 °C 16.9 °C 1013.5 hPa WSW 6.4 km/h 12.9 km/h 66% 0.0 mm 63 W/m2
19:31 23.4 °C 16.9 °C 1013.5 hPa West 16.3 km/h 19.3 km/h 67% 0.0 mm 49 W/m2
19:36 23.3 °C 16.8 °C 1013.9 hPa West 6.4 km/h 17.7 km/h 67% 0.0 mm 53 W/m2
19:41 23.3 °C 17.1 °C 1013.5 hPa WNW 6.4 km/h 19.3 km/h 68% 0.0 mm 51 W/m2
19:46 23.3 °C 17.1 °C 1013.9 hPa NW 4.7 km/h 11.3 km/h 68% 0.0 mm 42 W/m2
19:51 23.2 °C 17 °C 1013.9 hPa West 9.7 km/h 14.5 km/h 68% 0.0 mm 37 W/m2
19:56 23.1 °C 16.9 °C 1013.9 hPa West 1.4 km/h 11.3 km/h 68% 0.0 mm 32 W/m2
20:01 23.1 °C 17.1 °C 1013.9 hPa West 4.7 km/h 4.8 km/h 69% 0.0 mm 26 W/m2
20:06 23 °C 17 °C 1013.9 hPa West 11.1 km/h 11.3 km/h 69% 0.0 mm 25 W/m2
20:11 22.9 °C 17.1 °C 1013.9 hPa WSW 6.4 km/h 11.3 km/h 70% 0.0 mm 25 W/m2
20:17 22.8 °C 17 °C 1013.9 hPa WNW 13 km/h 12.9 km/h 70% 0.0 mm 19 W/m2
20:22 22.8 °C 17 °C 1014.2 hPa WSW 7.9 km/h 8 km/h 70% 0.0 mm 14 W/m2
20:27 22.7 °C 16.9 °C 1014.2 hPa West 6.4 km/h 14.5 km/h 70% 0.0 mm 9 W/m2
20:32 22.7 °C 16.9 °C 1014.2 hPa WSW 7.9 km/h 11.3 km/h 70% 0.0 mm 5 W/m2
20:37 22.7 °C 16.9 °C 1014.2 hPa West 3.2 km/h 6.4 km/h 70% 0.0 mm 5 W/m2
20:42 22.6 °C 16.8 °C 1014.2 hPa NW 4.7 km/h 14.5 km/h 70% 0.0 mm 0 W/m2
20:47 22.6 °C 17.1 °C 1014.2 hPa West 3.2 km/h 12.9 km/h 71% 0.0 mm 0 W/m2
20:52 22.6 °C 17.1 °C 1014.6 hPa NW 4.7 km/h 9.7 km/h 71% 0.0 mm 0 W/m2
20:57 22.5 °C 17 °C 1014.6 hPa West 6.4 km/h 11.3 km/h 71% 0.0 mm 0 W/m2
21:02 22.5 °C 17.2 °C 1014.6 hPa WSW 7.9 km/h 11.3 km/h 72% 0.0 mm 0 W/m2
21:07 22.4 °C 17.1 °C 1014.6 hPa West 6.4 km/h 11.3 km/h 72% 0.0 mm 0 W/m2
21:12 22.4 °C 17.1 °C 1014.6 hPa West 11.1 km/h 14.5 km/h 72% 0.0 mm 0 W/m2
21:17 22.4 °C 17.1 °C 1014.6 hPa WNW 4.7 km/h 11.3 km/h 72% 0.0 mm 0 W/m2
21:22 22.4 °C 17.1 °C 1014.6 hPa WSW 7.9 km/h 8 km/h 72% 0.0 mm 0 W/m2
21:27 22.4 °C 17.1 °C 1014.6 hPa West 3.2 km/h 12.9 km/h 72% 0.0 mm 0 W/m2
21:32 22.3 °C 17 °C 1014.6 hPa WNW 6.4 km/h 16.1 km/h 72% 0.0 mm 0 W/m2
21:37 22.3 °C 17.2 °C 1014.6 hPa NW 9.7 km/h 12.9 km/h 73% 0.0 mm 0 W/m2
21:42 22.4 °C 17.3 °C 1014.6 hPa WNW 4.7 km/h 16.1 km/h 73% 0.0 mm 0 W/m2
21:47 22.3 °C 17.2 °C 1014.6 hPa WNW 4.7 km/h 12.9 km/h 73% 0.0 mm 0 W/m2
21:52 22.3 °C 17.2 °C 1014.6 hPa WNW 7.9 km/h 16.1 km/h 73% 0.0 mm 0 W/m2
21:57 22.3 °C 17.2 °C 1014.6 hPa West 9.7 km/h 12.9 km/h 73% 0.0 mm 0 W/m2
22:02 22.2 °C 17.1 °C 1014.6 hPa WSW 3.2 km/h 14.5 km/h 73% 0.0 mm 0 W/m2
22:07 22.2 °C 17.1 °C 1014.6 hPa WSW 4.7 km/h 14.5 km/h 73% 0.0 mm 0 W/m2
22:12 22.2 °C 17.3 °C 1014.6 hPa West 4.7 km/h 12.9 km/h 74% 0.0 mm 0 W/m2
22:17 22.2 °C 17.3 °C 1014.6 hPa West 4.7 km/h 14.5 km/h 74% 0.0 mm 0 W/m2
22:22 22.1 °C 17.2 °C 1014.6 hPa West 4.7 km/h 14.5 km/h 74% 0.0 mm 0 W/m2
22:27 22 °C 17.2 °C 1014.6 hPa West 14.3 km/h 14.5 km/h 74% 0.0 mm 0 W/m2
22:32 21.9 °C 17.1 °C 1014.6 hPa West 9.7 km/h 11.3 km/h 74% 0.0 mm 0 W/m2
22:37 21.8 °C 17.2 °C 1014.6 hPa WNW 13 km/h 17.7 km/h 75% 0.0 mm 0 W/m2
22:42 21.7 °C 17.1 °C 1014.6 hPa West 4.7 km/h 16.1 km/h 75% 0.0 mm 0 W/m2
22:47 21.6 °C 17.2 °C 1014.6 hPa West 6.4 km/h 16.1 km/h 76% 0.0 mm 0 W/m2
22:52 21.6 °C 17.2 °C 1014.6 hPa West 11.1 km/h 19.3 km/h 76% 0.0 mm 0 W/m2
22:57 21.6 °C 17.2 °C 1014.6 hPa SW 9.7 km/h 14.5 km/h 76% 0.0 mm 0 W/m2
23:02 21.6 °C 17.2 °C 1014.6 hPa West 9.7 km/h 17.7 km/h 76% 0.0 mm 0 W/m2
23:07 21.5 °C 17.1 °C 1014.6 hPa WSW 14.3 km/h 16.1 km/h 76% 0.0 mm 0 W/m2
23:12 21.5 °C 17.1 °C 1014.6 hPa NW 13 km/h 17.7 km/h 76% 0.0 mm 0 W/m2
23:17 21.4 °C 17 °C 1014.6 hPa WNW 7.9 km/h 16.1 km/h 76% 0.0 mm 0 W/m2
23:22 21.4 °C 17 °C 1014.6 hPa West 4.7 km/h 12.9 km/h 76% 0.0 mm 0 W/m2
23:27 21.4 °C 17 °C 1014.6 hPa WNW 6.4 km/h 16.1 km/h 76% 0.0 mm 0 W/m2
23:32 21.3 °C 16.9 °C 1014.6 hPa West 6.4 km/h 16.1 km/h 76% 0.0 mm 0 W/m2
23:37 21.3 °C 16.9 °C 1014.9 hPa NW 6.4 km/h 16.1 km/h 76% 0.0 mm 0 W/m2
23:42 21.3 °C 16.9 °C 1014.9 hPa WSW 7.9 km/h 12.9 km/h 76% 0.0 mm 0 W/m2
23:47 21.3 °C 17.1 °C 1014.9 hPa NW 4.7 km/h 16.1 km/h 77% 0.0 mm 0 W/m2
23:52 21.2 °C 17 °C 1014.9 hPa WNW 9.7 km/h 14.5 km/h 77% 0.0 mm 0 W/m2
23:57 21.2 °C 17 °C 1014.9 hPa NW 6.4 km/h 14.5 km/h 77% 0.0 mm 0 W/m2
Juneau County Weather
Compliments of Weather Underground - 4 mb